SL-16 DEB, 22441

Orbit data source: Space-Track

SL-16 DEB, 22441 is space debris in LEO originally from a launch on Fri, 25 Dec 1992 UTC launched from the Tyuratam Missile And Space Complex (TTMTR). Debris objects in space refer to the collection of defunct objects orbiting the Earth. Examples of debris include non-operational satellites, rocket bodies, and fragments generated from explosions, collisions, or faulty payload assembly.

Loading next visibility...
Identifier
22441, 1992-093EJ
Orbit
LEO
Country
Flag of CISCIS
Related business
Manufacturer
Unknown
Mission
Spacecraft
Bus & Motor
Unknown
Mass
Unknown
Launch date (UTC)
1992-12-25 (33 years ago)
Launch vehicle
Unknown
Launch site
Tyuratam Missile And Space Complex (TTMTR)
Object type
Payload
Rocket body
Debris
Shape & HBR
Unknown shape, 0.5 m
Radar Cross Section
Medium (>0.1 m² and <1 m²)

Expand to show TLE details & history
Last TLE update: 19 hours ago

TLE from 19 hours ago
0 SL-16 DEB
1 22441U 92093EJ  25347.95824433  .00001091  00000-0  68586-3 0  9992
2 22441  71.1962 286.8878 0085312 208.1671 225.2783 14.04739559684141
Epoch: 2025-12-13T22:59Z
TLE epoch observation values (Epoch: 2025-12-13T22:59:52.310Z)
Latitude
64.80124°
Longitude
-94.91468°
Altitude
931.904 km
Speed
7.37 km/s
True Right ascension
22h 11m 43s
True Declination
64° 40' 18"
Sunlit
Object was in daylight at epoch
Visualization orbit readout
Latitude
Unknown
Longitude
Unknown
Altitude
Unknown
Speed
Unknown
Apparent Right ascension
Unknown
Apparent Declination
Unknown
Sunlit
N/A
Visualization observer readout
Local Sidereal Time
16:23:29
Azimuth
Unknown
Elevation
Unknown
Doppler factor
Unknown
Orbital elements
Apogee altitude
937.226 km
Perigee altitude
813.464 km
Semi-major axis
7,253.482 km
Eccentricity
0.00853
Inclination
71.1962°
RAAN
286.8878°
Arg. of periapsis
208.1671°
True anomaly
224.58887°
Mean anomaly
225.2783°
Eccentric anomaly
224.93307°
Mean motion
3.51337 °/min
Orbital period
102.47 mins
BSTAR
0.00068586
Loading maneuver chart data...
Computing Atmospheric mass density...
Loading historical data...
Loading historical data...
Loading historical data...
Loading historical data...
Loading historical data...
Loading historical data...
Loading historical data...

Documentation

Showing up to 5 results
|